Year,Month,Day,Hour,Minute,Value (Times are PST for temperature in C)
2016,09,29,00,00,9.50
2016,09,29,00,01,9.60
2016,09,29,00,02,9.60
2016,09,29,00,03,9.60
2016,09,29,00,04,9.60
2016,09,29,00,05,9.60
2016,09,29,00,06,9.60
2016,09,29,00,07,9.60
2016,09,29,00,08,9.60
2016,09,29,00,09,9.60
2016,09,29,00,10,9.60
2016,09,29,00,11,9.60
2016,09,29,00,12,9.60
2016,09,29,00,13,9.60
2016,09,29,00,14,9.60
2016,09,29,00,15,9.60
2016,09,29,00,16,9.60
2016,09,29,00,17,9.60
2016,09,29,00,18,9.60
2016,09,29,00,19,9.60
2016,09,29,00,20,9.50
2016,09,29,00,21,9.50
2016,09,29,00,22,9.50
2016,09,29,00,23,9.60
2016,09,29,00,24,9.60
2016,09,29,00,25,9.70
2016,09,29,00,26,9.70
2016,09,29,00,27,9.80
2016,09,29,00,28,9.80
2016,09,29,00,29,9.80
2016,09,29,00,30,9.90
2016,09,29,00,31,9.90
2016,09,29,00,32,9.90
2016,09,29,00,33,9.90
2016,09,29,00,34,9.90
2016,09,29,00,35,9.90
2016,09,29,00,36,9.90
2016,09,29,00,37,9.90
2016,09,29,00,38,9.80
2016,09,29,00,39,9.80
2016,09,29,00,40,9.80
2016,09,29,00,41,9.80
2016,09,29,00,42,9.70
2016,09,29,00,43,9.70
2016,09,29,00,44,9.70
2016,09,29,00,45,9.60
2016,09,29,00,46,9.60
2016,09,29,00,47,9.60
2016,09,29,00,48,9.50
2016,09,29,00,49,9.50
2016,09,29,00,50,9.40
2016,09,29,00,51,9.40
2016,09,29,00,52,9.30
2016,09,29,00,53,9.30
2016,09,29,00,54,9.20
2016,09,29,00,55,9.20
2016,09,29,00,56,9.20
2016,09,29,00,57,9.10
2016,09,29,00,58,9.10
2016,09,29,00,59,9.00
2016,09,29,01,00,9.00
2016,09,29,01,01,9.00
2016,09,29,01,02,9.00
2016,09,29,01,03,9.00
2016,09,29,01,04,9.00
2016,09,29,01,05,9.00
2016,09,29,01,06,8.90
2016,09,29,01,07,8.90
2016,09,29,01,08,8.90
2016,09,29,01,09,8.90
2016,09,29,01,10,9.00
2016,09,29,01,11,9.00
2016,09,29,01,12,9.00
2016,09,29,01,13,9.00
2016,09,29,01,14,8.90
2016,09,29,01,15,8.90
2016,09,29,01,16,8.90
2016,09,29,01,17,8.80
2016,09,29,01,18,8.80
2016,09,29,01,19,8.70
2016,09,29,01,20,8.70
2016,09,29,01,21,8.70
2016,09,29,01,22,8.70
2016,09,29,01,23,8.60
2016,09,29,01,24,8.60
2016,09,29,01,25,8.60
2016,09,29,01,26,8.50
2016,09,29,01,27,8.50
2016,09,29,01,28,8.50
2016,09,29,01,29,8.50
2016,09,29,01,30,8.50
2016,09,29,01,31,8.50
2016,09,29,01,32,8.50
2016,09,29,01,33,8.50
2016,09,29,01,34,8.50
2016,09,29,01,35,8.50
2016,09,29,01,36,8.50
2016,09,29,01,37,8.50
2016,09,29,01,38,8.50
2016,09,29,01,39,8.50
2016,09,29,01,40,8.50
2016,09,29,01,41,8.50
2016,09,29,01,42,8.50
2016,09,29,01,43,8.60
2016,09,29,01,44,8.60
2016,09,29,01,45,8.50
2016,09,29,01,46,8.50
2016,09,29,01,47,8.50
2016,09,29,01,48,8.40
2016,09,29,01,49,8.40
2016,09,29,01,50,8.40
2016,09,29,01,51,8.30
2016,09,29,01,52,8.30
2016,09,29,01,53,8.20
2016,09,29,01,54,8.20
2016,09,29,01,55,8.20
2016,09,29,01,56,8.10
2016,09,29,01,57,8.10
2016,09,29,01,58,8.10
2016,09,29,01,59,8.00
2016,09,29,02,00,8.00
2016,09,29,02,01,8.00
2016,09,29,02,02,8.00
2016,09,29,02,03,7.90
2016,09,29,02,04,7.90
2016,09,29,02,05,7.90
2016,09,29,02,06,7.90
2016,09,29,02,07,7.90
2016,09,29,02,08,7.80
2016,09,29,02,09,7.80
2016,09,29,02,10,7.80
2016,09,29,02,11,7.80
2016,09,29,02,12,7.70
2016,09,29,02,13,7.70
2016,09,29,02,14,7.70
2016,09,29,02,15,7.70
2016,09,29,02,16,7.60
2016,09,29,02,17,7.60
2016,09,29,02,18,7.50
2016,09,29,02,19,7.40
2016,09,29,02,20,7.40
2016,09,29,02,21,7.30
2016,09,29,02,22,7.30
2016,09,29,02,23,7.30
2016,09,29,02,24,7.30
2016,09,29,02,25,7.20
2016,09,29,02,26,7.20
2016,09,29,02,27,7.20
2016,09,29,02,28,7.20
2016,09,29,02,29,7.20
2016,09,29,02,30,7.20
2016,09,29,02,31,7.20
2016,09,29,02,32,7.20
2016,09,29,02,33,7.20
2016,09,29,02,34,7.20
2016,09,29,02,35,7.20
2016,09,29,02,36,7.20
2016,09,29,02,37,7.20
2016,09,29,02,38,7.20
2016,09,29,02,39,7.20
2016,09,29,02,40,7.20
2016,09,29,02,41,7.10
2016,09,29,02,42,7.10
2016,09,29,02,43,7.10
2016,09,29,02,44,7.10
2016,09,29,02,45,7.10
2016,09,29,02,46,7.10
2016,09,29,02,47,7.10
2016,09,29,02,48,7.00
2016,09,29,02,49,7.00
2016,09,29,02,50,6.90
2016,09,29,02,51,6.90
2016,09,29,02,52,6.90
2016,09,29,02,53,6.90
2016,09,29,02,54,6.90
2016,09,29,02,55,6.80
2016,09,29,02,56,6.80
2016,09,29,02,57,6.80
2016,09,29,02,58,6.80
2016,09,29,02,59,6.80
2016,09,29,03,00,6.80
2016,09,29,03,01,6.80
2016,09,29,03,02,6.80
2016,09,29,03,03,6.80
2016,09,29,03,04,6.80
2016,09,29,03,05,6.70
2016,09,29,03,06,6.70
2016,09,29,03,07,6.70
2016,09,29,03,08,6.70
2016,09,29,03,09,6.70
2016,09,29,03,10,6.60
2016,09,29,03,11,6.60
2016,09,29,03,12,6.60
2016,09,29,03,13,6.60
2016,09,29,03,14,6.60
2016,09,29,03,15,6.60
2016,09,29,03,16,6.60
2016,09,29,03,17,6.50
2016,09,29,03,18,6.50
2016,09,29,03,19,6.50
2016,09,29,03,20,6.50
2016,09,29,03,21,6.50
2016,09,29,03,22,6.40
2016,09,29,03,23,6.40
2016,09,29,03,24,6.40
2016,09,29,03,25,6.40
2016,09,29,03,26,6.40
2016,09,29,03,27,6.40
2016,09,29,03,28,6.40
2016,09,29,03,29,6.40
2016,09,29,03,30,6.40
2016,09,29,03,31,6.30
2016,09,29,03,32,6.30
2016,09,29,03,33,6.30
2016,09,29,03,34,6.30
2016,09,29,03,35,6.30
2016,09,29,03,36,6.20
2016,09,29,03,37,6.20
2016,09,29,03,38,6.20
2016,09,29,03,39,6.20
2016,09,29,03,40,6.20
2016,09,29,03,41,6.20
2016,09,29,03,42,6.20
2016,09,29,03,43,6.10
2016,09,29,03,44,6.10
2016,09,29,03,45,6.10
2016,09,29,03,46,6.10
2016,09,29,03,47,6.10
2016,09,29,03,48,6.10
2016,09,29,03,49,6.10
2016,09,29,03,50,6.10
2016,09,29,03,51,6.00
2016,09,29,03,52,6.00
2016,09,29,03,53,6.00
2016,09,29,03,54,6.00
2016,09,29,03,55,6.00
2016,09,29,03,56,6.00
2016,09,29,03,57,6.00
2016,09,29,03,58,6.00
2016,09,29,03,59,6.00
2016,09,29,04,00,6.00
2016,09,29,04,01,6.00
2016,09,29,04,02,6.10
2016,09,29,04,03,6.10
2016,09,29,04,04,6.10
2016,09,29,04,05,6.10
2016,09,29,04,06,6.10
2016,09,29,04,07,6.10
2016,09,29,04,08,6.10
2016,09,29,04,09,6.00
2016,09,29,04,10,6.00
2016,09,29,04,11,6.00
2016,09,29,04,12,6.00
2016,09,29,04,13,6.00
2016,09,29,04,14,6.00
2016,09,29,04,15,6.00
2016,09,29,04,16,5.90
2016,09,29,04,17,5.90
2016,09,29,04,18,5.90
2016,09,29,04,19,5.90
2016,09,29,04,20,5.90
2016,09,29,04,21,5.90
2016,09,29,04,22,5.90
2016,09,29,04,23,5.90
2016,09,29,04,24,5.90
2016,09,29,04,25,5.90
2016,09,29,04,26,5.90
2016,09,29,04,27,5.90
2016,09,29,04,28,5.90
2016,09,29,04,29,5.90
2016,09,29,04,30,5.90
2016,09,29,04,31,5.90
2016,09,29,04,32,6.00
2016,09,29,04,33,6.00
2016,09,29,04,34,5.90
2016,09,29,04,35,5.90
2016,09,29,04,36,5.90
2016,09,29,04,37,5.90
2016,09,29,04,38,5.90
2016,09,29,04,39,5.90
2016,09,29,04,40,5.90
2016,09,29,04,41,5.90
2016,09,29,04,42,5.90
2016,09,29,04,43,5.90
2016,09,29,04,44,5.90
2016,09,29,04,45,5.80
2016,09,29,04,46,5.90
2016,09,29,04,47,5.80
2016,09,29,04,48,5.80
2016,09,29,04,49,5.80
2016,09,29,04,50,5.80
2016,09,29,04,51,5.80
2016,09,29,04,52,5.80
2016,09,29,04,53,5.90
2016,09,29,04,54,5.90
2016,09,29,04,55,6.00
2016,09,29,04,56,6.00
2016,09,29,04,57,6.10
2016,09,29,04,58,6.20
2016,09,29,04,59,6.30
2016,09,29,05,00,6.30
2016,09,29,05,01,6.40
2016,09,29,05,02,6.40
2016,09,29,05,03,6.50
2016,09,29,05,04,6.60
2016,09,29,05,05,6.60
2016,09,29,05,06,6.70
2016,09,29,05,07,6.70
2016,09,29,05,08,6.80
2016,09,29,05,09,6.80
2016,09,29,05,10,6.80
2016,09,29,05,11,6.90
2016,09,29,05,12,6.90
2016,09,29,05,13,6.90
2016,09,29,05,14,6.90
2016,09,29,05,15,7.00
2016,09,29,05,16,7.00
2016,09,29,05,17,7.00
2016,09,29,05,18,7.10
2016,09,29,05,19,7.10
2016,09,29,05,20,7.20
2016,09,29,05,21,7.20
2016,09,29,05,22,7.30
2016,09,29,05,23,7.30
2016,09,29,05,24,7.30
2016,09,29,05,25,7.40
2016,09,29,05,26,7.40
2016,09,29,05,27,7.50
2016,09,29,05,28,7.50
2016,09,29,05,29,7.50
2016,09,29,05,30,7.60
2016,09,29,05,31,7.60
2016,09,29,05,32,7.60
2016,09,29,05,33,7.60
2016,09,29,05,34,7.60
2016,09,29,05,35,7.60
2016,09,29,05,36,7.60
2016,09,29,05,37,7.60
2016,09,29,05,38,7.60
2016,09,29,05,39,7.60
2016,09,29,05,40,7.60
2016,09,29,05,41,7.60
2016,09,29,05,42,7.60
2016,09,29,05,43,7.60
2016,09,29,05,44,7.60
2016,09,29,05,45,7.60
2016,09,29,05,46,7.60
2016,09,29,05,47,7.50
2016,09,29,05,48,7.50
2016,09,29,05,49,7.50
2016,09,29,05,50,7.40
2016,09,29,05,51,7.40
2016,09,29,05,52,7.40
2016,09,29,05,53,7.30
2016,09,29,05,54,7.30
2016,09,29,05,55,7.30
2016,09,29,05,56,7.30
2016,09,29,05,57,7.30
2016,09,29,05,58,7.30
2016,09,29,05,59,7.30
2016,09,29,06,00,7.30
2016,09,29,06,01,7.30
2016,09,29,06,02,7.30
2016,09,29,06,03,7.20
2016,09,29,06,04,7.20
2016,09,29,06,05,7.20
2016,09,29,06,06,7.10
2016,09,29,06,07,7.10
2016,09,29,06,08,7.10
2016,09,29,06,09,7.10
2016,09,29,06,10,7.10
2016,09,29,06,11,7.00
2016,09,29,06,12,7.00
2016,09,29,06,13,7.00
2016,09,29,06,14,7.00
2016,09,29,06,15,6.90
2016,09,29,06,16,6.90
2016,09,29,06,17,6.90
2016,09,29,06,18,6.90
2016,09,29,06,19,6.90
2016,09,29,06,20,6.90
2016,09,29,06,21,6.90
2016,09,29,06,22,6.90
2016,09,29,06,23,6.90
2016,09,29,06,24,6.90
2016,09,29,06,25,6.90
2016,09,29,06,26,6.90
2016,09,29,06,27,6.90
2016,09,29,06,28,6.80
2016,09,29,06,29,6.80
2016,09,29,06,30,6.80
2016,09,29,06,31,6.80
2016,09,29,06,32,6.80
2016,09,29,06,33,6.80
2016,09,29,06,34,6.80
2016,09,29,06,35,6.80
2016,09,29,06,36,6.90
2016,09,29,06,37,6.90
2016,09,29,06,38,6.90
2016,09,29,06,39,7.00
2016,09,29,06,40,7.00
2016,09,29,06,41,7.00
2016,09,29,06,42,7.10
2016,09,29,06,43,7.10
2016,09,29,06,44,7.10
2016,09,29,06,45,7.10
2016,09,29,06,46,7.10
2016,09,29,06,47,7.10
2016,09,29,06,48,7.10
2016,09,29,06,49,7.10
2016,09,29,06,50,7.10
2016,09,29,06,51,7.10
2016,09,29,06,52,7.10
2016,09,29,06,53,7.10
2016,09,29,06,54,7.10
2016,09,29,06,55,7.00
2016,09,29,06,56,7.00
2016,09,29,06,57,7.00
2016,09,29,06,58,6.90
2016,09,29,06,59,6.90
2016,09,29,07,00,6.90
2016,09,29,07,01,6.90
2016,09,29,07,02,6.90
2016,09,29,07,03,6.90
2016,09,29,07,04,6.90
2016,09,29,07,05,6.90
2016,09,29,07,06,6.80
2016,09,29,07,07,6.80
2016,09,29,07,08,6.80
2016,09,29,07,09,6.80
2016,09,29,07,10,6.80
2016,09,29,07,11,6.80
2016,09,29,07,12,6.80
2016,09,29,07,13,6.80
2016,09,29,07,14,6.70
2016,09,29,07,15,6.70
2016,09,29,07,16,6.70
2016,09,29,07,17,6.60
2016,09,29,07,18,6.60
2016,09,29,07,19,6.60
2016,09,29,07,20,6.60
2016,09,29,07,21,6.60
2016,09,29,07,22,6.50
2016,09,29,07,23,6.50
2016,09,29,07,24,6.40
2016,09,29,07,25,6.40
2016,09,29,07,26,6.30
2016,09,29,07,27,6.30
2016,09,29,07,28,6.20
2016,09,29,07,29,6.20
2016,09,29,07,30,6.20
2016,09,29,07,31,6.20
2016,09,29,07,32,6.30
2016,09,29,07,33,6.30
2016,09,29,07,34,6.30
2016,09,29,07,35,6.30
2016,09,29,07,36,6.30
2016,09,29,07,37,6.30
2016,09,29,07,38,6.30
2016,09,29,07,39,6.30
2016,09,29,07,40,6.30
2016,09,29,07,41,6.30
2016,09,29,07,42,6.30
2016,09,29,07,43,6.30
2016,09,29,07,44,6.30
2016,09,29,07,45,6.30
2016,09,29,07,46,6.30
2016,09,29,07,47,6.30
2016,09,29,07,48,6.30
2016,09,29,07,49,6.20
2016,09,29,07,50,6.20
2016,09,29,07,51,6.20
2016,09,29,07,52,6.20
2016,09,29,07,53,6.10
2016,09,29,07,54,6.10
2016,09,29,07,55,6.10
2016,09,29,07,56,6.10
2016,09,29,07,57,6.00
2016,09,29,07,58,6.00
2016,09,29,07,59,6.00
2016,09,29,08,00,6.00
2016,09,29,08,01,6.00
2016,09,29,08,02,6.00
2016,09,29,08,03,6.00
2016,09,29,08,04,6.00
2016,09,29,08,05,6.00
2016,09,29,08,06,6.10
2016,09,29,08,07,6.10
2016,09,29,08,08,6.10
2016,09,29,08,09,6.20
2016,09,29,08,10,6.20
2016,09,29,08,11,6.30
2016,09,29,08,12,6.30
2016,09,29,08,13,6.40
2016,09,29,08,14,6.50
2016,09,29,08,15,6.50
2016,09,29,08,16,6.60
2016,09,29,08,17,6.70
2016,09,29,08,18,6.70
2016,09,29,08,19,6.70
2016,09,29,08,20,6.80
2016,09,29,08,21,6.80
2016,09,29,08,22,6.90
2016,09,29,08,23,6.90
2016,09,29,08,24,7.00
2016,09,29,08,25,7.10
2016,09,29,08,26,7.20
2016,09,29,08,27,7.20
2016,09,29,08,28,7.30
2016,09,29,08,29,7.40
2016,09,29,08,30,7.50
2016,09,29,08,31,7.50
2016,09,29,08,32,7.60
2016,09,29,08,33,7.70
2016,09,29,08,34,7.70
2016,09,29,08,35,7.80
2016,09,29,08,36,7.90
2016,09,29,08,37,8.00
2016,09,29,08,38,8.00
2016,09,29,08,39,8.10
2016,09,29,08,40,8.20
2016,09,29,08,41,8.20
2016,09,29,08,42,8.30
2016,09,29,08,43,8.30
2016,09,29,08,44,8.40
2016,09,29,08,45,8.40
2016,09,29,08,46,8.50
2016,09,29,08,47,8.60
2016,09,29,08,48,8.60
2016,09,29,08,49,8.70
2016,09,29,08,50,8.70
2016,09,29,08,51,8.80
2016,09,29,08,52,8.80
2016,09,29,08,53,8.90
2016,09,29,08,54,8.90
2016,09,29,08,55,9.00
2016,09,29,08,56,9.00
2016,09,29,08,57,9.10
2016,09,29,08,58,9.20
2016,09,29,08,59,9.20
2016,09,29,09,00,9.20
2016,09,29,09,01,9.30
2016,09,29,09,02,9.30
2016,09,29,09,03,9.30
2016,09,29,09,04,9.40
2016,09,29,09,05,9.40
2016,09,29,09,06,9.40
2016,09,29,09,07,9.40
2016,09,29,09,08,9.40
2016,09,29,09,09,9.50
2016,09,29,09,10,9.50
2016,09,29,09,11,9.50
2016,09,29,09,12,9.50
2016,09,29,09,13,9.50
2016,09,29,09,14,9.50
2016,09,29,09,15,9.50
2016,09,29,09,16,9.60
2016,09,29,09,17,9.60
2016,09,29,09,18,9.60
2016,09,29,09,19,9.70
2016,09,29,09,20,9.70
2016,09,29,09,21,9.70
2016,09,29,09,22,9.80
2016,09,29,09,23,9.80
2016,09,29,09,24,9.90
2016,09,29,09,25,9.90
2016,09,29,09,26,9.90
2016,09,29,09,27,10.00
2016,09,29,09,28,10.10
2016,09,29,09,29,10.10
2016,09,29,09,30,10.10
2016,09,29,09,31,10.20
2016,09,29,09,32,10.20
2016,09,29,09,33,10.30
2016,09,29,09,34,10.30
2016,09,29,09,35,10.40
2016,09,29,09,36,10.40
2016,09,29,09,37,10.40
2016,09,29,09,38,10.50
2016,09,29,09,39,10.50
2016,09,29,09,40,10.60
2016,09,29,09,41,10.60
2016,09,29,09,42,10.60
2016,09,29,09,43,10.60
2016,09,29,09,44,10.60
2016,09,29,09,45,10.60
2016,09,29,09,46,10.60
2016,09,29,09,47,10.60
2016,09,29,09,48,10.70
2016,09,29,09,49,10.70
2016,09,29,09,50,10.70
2016,09,29,09,51,10.80
2016,09,29,09,52,10.80
2016,09,29,09,53,10.80
2016,09,29,09,54,10.90
2016,09,29,09,55,10.90
2016,09,29,09,56,11.00
2016,09,29,09,57,11.00
2016,09,29,09,58,11.10
2016,09,29,09,59,11.10
2016,09,29,10,00,11.10
2016,09,29,10,01,11.20
2016,09,29,10,02,11.20
2016,09,29,10,03,11.30
2016,09,29,10,04,11.30
2016,09,29,10,05,11.30
2016,09,29,10,06,11.40
2016,09,29,10,07,11.40
2016,09,29,10,08,11.40
2016,09,29,10,09,11.50
2016,09,29,10,10,11.50
2016,09,29,10,11,11.50
2016,09,29,10,12,11.50
2016,09,29,10,13,11.50
2016,09,29,10,14,11.50
2016,09,29,10,15,11.50
2016,09,29,10,16,11.60
2016,09,29,10,17,11.60
2016,09,29,10,18,11.60
2016,09,29,10,19,11.60
2016,09,29,10,20,11.60
2016,09,29,10,21,11.60
2016,09,29,10,22,11.70
2016,09,29,10,23,11.70
2016,09,29,10,24,11.70
2016,09,29,10,25,11.70
2016,09,29,10,26,11.80
2016,09,29,10,27,11.80
2016,09,29,10,28,11.80
2016,09,29,10,29,11.80
2016,09,29,10,30,11.90
2016,09,29,10,31,11.90
2016,09,29,10,32,11.90
2016,09,29,10,33,12.00
2016,09,29,10,34,12.00
2016,09,29,10,35,12.00
2016,09,29,10,36,12.00
2016,09,29,10,37,12.00
2016,09,29,10,38,12.00
2016,09,29,10,39,12.00
2016,09,29,10,40,12.10
2016,09,29,10,41,12.20
2016,09,29,10,42,12.20
2016,09,29,10,43,12.30
2016,09,29,10,44,12.40
2016,09,29,10,45,12.40
2016,09,29,10,46,12.50
2016,09,29,10,47,12.60
2016,09,29,10,48,12.60
2016,09,29,10,49,12.60
2016,09,29,10,50,12.70
2016,09,29,10,51,12.70
2016,09,29,10,52,12.70
2016,09,29,10,53,12.70
2016,09,29,10,54,12.70
2016,09,29,10,55,12.70
2016,09,29,10,56,12.70
2016,09,29,10,57,12.70
2016,09,29,10,58,12.80
2016,09,29,10,59,12.80
2016,09,29,11,00,12.80
2016,09,29,11,01,12.80
2016,09,29,11,02,12.90
2016,09,29,11,03,12.90
2016,09,29,11,04,12.90
2016,09,29,11,05,13.00
2016,09,29,11,06,13.10
2016,09,29,11,07,13.10
2016,09,29,11,08,13.20
2016,09,29,11,09,13.20
2016,09,29,11,10,13.30
2016,09,29,11,11,13.30
2016,09,29,11,12,13.30
2016,09,29,11,13,13.40
2016,09,29,11,14,13.40
2016,09,29,11,15,13.40
2016,09,29,11,16,13.30
2016,09,29,11,17,13.40
2016,09,29,11,18,13.40
2016,09,29,11,19,13.40
2016,09,29,11,20,13.50
2016,09,29,11,21,13.50
2016,09,29,11,22,13.50
2016,09,29,11,23,13.50
2016,09,29,11,24,13.50
2016,09,29,11,25,13.50
2016,09,29,11,26,13.40
2016,09,29,11,27,13.40
2016,09,29,11,28,13.40
2016,09,29,11,29,13.40
2016,09,29,11,30,13.40
2016,09,29,11,31,13.40
2016,09,29,11,32,13.40
2016,09,29,11,33,13.40
2016,09,29,11,34,13.40
2016,09,29,11,35,13.40
2016,09,29,11,36,13.40
2016,09,29,11,37,13.50
2016,09,29,11,38,13.50
2016,09,29,11,39,13.50
2016,09,29,11,40,13.50
2016,09,29,11,41,13.60
2016,09,29,11,42,13.60
2016,09,29,11,43,13.60
2016,09,29,11,44,13.60
2016,09,29,11,45,13.60
2016,09,29,11,46,13.60
2016,09,29,11,47,13.50
2016,09,29,11,48,13.50
2016,09,29,11,49,13.50
2016,09,29,11,50,13.60
2016,09,29,11,51,13.60
2016,09,29,11,52,13.60
2016,09,29,11,53,13.60
2016,09,29,11,54,13.60
2016,09,29,11,55,13.60
2016,09,29,11,56,13.70
2016,09,29,11,57,13.70
2016,09,29,11,58,13.80
2016,09,29,11,59,13.80
2016,09,29,12,00,13.80
2016,09,29,12,01,13.70
2016,09,29,12,02,13.70
2016,09,29,12,03,13.70
2016,09,29,12,04,13.70
2016,09,29,12,05,13.70
2016,09,29,12,06,13.70
2016,09,29,12,07,13.80
2016,09,29,12,08,13.70
2016,09,29,12,09,13.70
2016,09,29,12,10,13.70
2016,09,29,12,11,13.70
2016,09,29,12,12,13.70
2016,09,29,12,13,13.70
2016,09,29,12,14,13.70
2016,09,29,12,15,13.80
2016,09,29,12,16,13.80
2016,09,29,12,17,13.80
2016,09,29,12,18,13.90
2016,09,29,12,19,14.00
2016,09,29,12,20,14.00
2016,09,29,12,21,14.10
2016,09,29,12,22,14.10
2016,09,29,12,23,14.10
2016,09,29,12,24,14.10
2016,09,29,12,25,14.20
2016,09,29,12,26,14.20
2016,09,29,12,27,14.20
2016,09,29,12,28,14.20
2016,09,29,12,29,14.30
2016,09,29,12,30,14.40
2016,09,29,12,31,14.50
2016,09,29,12,32,14.60
2016,09,29,12,33,14.70
2016,09,29,12,34,14.70
2016,09,29,12,35,14.80
2016,09,29,12,36,14.80
2016,09,29,12,37,14.90
2016,09,29,12,38,14.90
2016,09,29,12,39,15.00
2016,09,29,12,40,15.00
2016,09,29,12,41,15.00
2016,09,29,12,42,15.00
2016,09,29,12,43,15.10
2016,09,29,12,44,15.10
2016,09,29,12,45,15.10
2016,09,29,12,46,15.10
2016,09,29,12,47,15.10
2016,09,29,12,48,15.10
2016,09,29,12,49,15.10
2016,09,29,12,50,15.00
2016,09,29,12,51,15.10
2016,09,29,12,52,15.10
2016,09,29,12,53,15.10
2016,09,29,12,54,15.20
2016,09,29,12,55,15.20
2016,09,29,12,56,15.20
2016,09,29,12,57,15.30
2016,09,29,12,58,15.30
2016,09,29,12,59,15.30
2016,09,29,13,00,15.30
2016,09,29,13,01,15.30
2016,09,29,13,02,15.20
2016,09,29,13,03,15.20
2016,09,29,13,04,15.20
2016,09,29,13,05,15.20
2016,09,29,13,06,15.20
2016,09,29,13,07,15.30
2016,09,29,13,08,15.30
2016,09,29,13,09,15.20
2016,09,29,13,10,15.20
2016,09,29,13,11,15.20
2016,09,29,13,12,15.20
2016,09,29,13,13,15.20
2016,09,29,13,14,15.20
2016,09,29,13,15,15.20
2016,09,29,13,16,15.20
2016,09,29,13,17,15.20
2016,09,29,13,18,15.10
2016,09,29,13,19,15.10
2016,09,29,13,20,15.00
2016,09,29,13,21,14.90
2016,09,29,13,22,14.80
2016,09,29,13,23,14.80
2016,09,29,13,24,14.80
2016,09,29,13,25,14.80
2016,09,29,13,26,14.80
2016,09,29,13,27,14.80
2016,09,29,13,28,14.80
2016,09,29,13,29,14.80
2016,09,29,13,30,14.80
2016,09,29,13,31,14.80
2016,09,29,13,32,14.80
2016,09,29,13,33,14.80
2016,09,29,13,34,14.80
2016,09,29,13,35,14.90
2016,09,29,13,36,14.90
2016,09,29,13,37,14.90
2016,09,29,13,38,14.90
2016,09,29,13,39,14.90
2016,09,29,13,40,14.90
2016,09,29,13,41,15.00
2016,09,29,13,42,15.00
2016,09,29,13,43,15.10
2016,09,29,13,44,15.10
2016,09,29,13,45,15.10
2016,09,29,13,46,15.10
2016,09,29,13,47,15.10
2016,09,29,13,48,15.10
2016,09,29,13,49,15.20
2016,09,29,13,50,15.20
2016,09,29,13,51,15.20
2016,09,29,13,52,15.20
2016,09,29,13,53,15.30
2016,09,29,13,54,15.30
2016,09,29,13,55,15.30
2016,09,29,13,56,15.40
2016,09,29,13,57,15.40
2016,09,29,13,58,15.40
2016,09,29,13,59,15.40
2016,09,29,14,00,15.40
2016,09,29,14,01,15.40
2016,09,29,14,02,15.50
2016,09,29,14,03,15.50
2016,09,29,14,04,15.60
2016,09,29,14,05,15.60
2016,09,29,14,06,15.70
2016,09,29,14,07,15.70
2016,09,29,14,08,15.70
2016,09,29,14,09,15.80
2016,09,29,14,10,15.80
2016,09,29,14,11,15.80
2016,09,29,14,12,15.80
2016,09,29,14,13,15.80
2016,09,29,14,14,15.80
2016,09,29,14,15,15.90
2016,09,29,14,16,15.80
2016,09,29,14,17,15.80
2016,09,29,14,18,15.80
2016,09,29,14,19,15.70
2016,09,29,14,20,15.70
2016,09,29,14,21,15.70
2016,09,29,14,22,15.70
2016,09,29,14,23,15.70
2016,09,29,14,24,15.70
2016,09,29,14,25,15.80
2016,09,29,14,26,15.90
2016,09,29,14,27,15.90
2016,09,29,14,28,16.00
2016,09,29,14,29,16.10
2016,09,29,14,30,16.20
2016,09,29,14,31,16.20
2016,09,29,14,32,16.20
2016,09,29,14,33,16.20
2016,09,29,14,34,16.20
2016,09,29,14,35,16.10
2016,09,29,14,36,16.10
2016,09,29,14,37,16.00
2016,09,29,14,38,16.00
2016,09,29,14,39,15.90
2016,09,29,14,40,16.00
2016,09,29,14,41,16.00
2016,09,29,14,42,16.10
2016,09,29,14,43,16.20
2016,09,29,14,44,16.20
2016,09,29,14,45,16.20
2016,09,29,14,46,16.20
2016,09,29,14,47,16.20
2016,09,29,14,48,16.20
2016,09,29,14,49,16.20
2016,09,29,14,50,16.20
2016,09,29,14,51,16.20
2016,09,29,14,52,16.20
2016,09,29,14,53,16.30
2016,09,29,14,54,16.30
2016,09,29,14,55,16.40
2016,09,29,14,56,16.50
2016,09,29,14,57,16.60
2016,09,29,14,58,16.70
2016,09,29,14,59,16.70
2016,09,29,15,00,16.70
2016,09,29,15,01,16.70
2016,09,29,15,02,16.60
2016,09,29,15,03,16.60
2016,09,29,15,04,16.60
2016,09,29,15,05,16.60
2016,09,29,15,06,16.70
2016,09,29,15,07,16.70
2016,09,29,15,08,16.70
2016,09,29,15,09,16.70
2016,09,29,15,10,16.70
2016,09,29,15,11,16.80
2016,09,29,15,12,16.80
2016,09,29,15,13,16.80
2016,09,29,15,14,16.90
2016,09,29,15,15,16.90
2016,09,29,15,16,17.00
2016,09,29,15,17,17.00
2016,09,29,15,18,17.00
2016,09,29,15,19,17.10
2016,09,29,15,20,17.10
2016,09,29,15,21,17.10
2016,09,29,15,22,17.10
2016,09,29,15,23,17.10
2016,09,29,15,24,17.10
2016,09,29,15,25,17.10
2016,09,29,15,26,17.20
2016,09,29,15,27,17.20
2016,09,29,15,28,17.20
2016,09,29,15,29,17.20
2016,09,29,15,30,17.30
2016,09,29,15,31,17.30
2016,09,29,15,32,17.30
2016,09,29,15,33,17.30
2016,09,29,15,34,17.30
2016,09,29,15,35,17.30
2016,09,29,15,36,17.30
2016,09,29,15,37,17.20
2016,09,29,15,38,17.20
2016,09,29,15,39,17.20
2016,09,29,15,40,17.10
2016,09,29,15,41,17.10
2016,09,29,15,42,17.10
2016,09,29,15,43,17.10
2016,09,29,15,44,17.00
2016,09,29,15,45,17.00
2016,09,29,15,46,16.90
2016,09,29,15,47,16.90
2016,09,29,15,48,16.90
2016,09,29,15,49,16.90
2016,09,29,15,50,16.90
2016,09,29,15,51,16.80
2016,09,29,15,52,16.80
2016,09,29,15,53,16.80
2016,09,29,15,54,16.80
2016,09,29,15,55,16.80
2016,09,29,15,56,16.80
2016,09,29,15,57,16.80
2016,09,29,15,58,16.80
2016,09,29,15,59,16.90
2016,09,29,16,00,16.90
2016,09,29,16,01,16.90
2016,09,29,16,02,16.90
2016,09,29,16,03,16.90
2016,09,29,16,04,16.80
2016,09,29,16,05,16.80
2016,09,29,16,06,16.80
2016,09,29,16,07,16.80
2016,09,29,16,08,16.80
2016,09,29,16,09,16.80
2016,09,29,16,10,16.80
2016,09,29,16,11,16.80
2016,09,29,16,12,16.80
2016,09,29,16,13,16.80
2016,09,29,16,14,16.80
2016,09,29,16,15,16.90
2016,09,29,16,16,16.90
2016,09,29,16,17,16.90
2016,09,29,16,18,17.00
2016,09,29,16,19,17.10
2016,09,29,16,20,17.10
2016,09,29,16,21,17.10
2016,09,29,16,22,17.10
2016,09,29,16,23,17.10
2016,09,29,16,24,17.10
2016,09,29,16,25,17.10
2016,09,29,16,26,17.10
2016,09,29,16,27,17.10
2016,09,29,16,28,17.10
2016,09,29,16,29,17.10
2016,09,29,16,30,17.00
2016,09,29,16,31,17.00
2016,09,29,16,32,17.00
2016,09,29,16,33,16.90
2016,09,29,16,34,16.90
2016,09,29,16,35,16.90
2016,09,29,16,36,16.90
2016,09,29,16,37,16.90
2016,09,29,16,38,17.00
2016,09,29,16,39,17.00
2016,09,29,16,40,17.00
2016,09,29,16,41,17.10
2016,09,29,16,42,17.10
2016,09,29,16,43,17.10
2016,09,29,16,44,17.10
2016,09,29,16,45,17.10
2016,09,29,16,46,17.10
2016,09,29,16,47,17.10
2016,09,29,16,48,17.00
2016,09,29,16,49,17.00
2016,09,29,16,50,17.00
2016,09,29,16,51,16.90
2016,09,29,16,52,16.90
2016,09,29,16,53,16.90
2016,09,29,16,54,16.90
2016,09,29,16,55,16.90
2016,09,29,16,56,16.90
2016,09,29,16,57,16.90
2016,09,29,16,58,16.90
2016,09,29,16,59,16.90
2016,09,29,17,00,16.80
2016,09,29,17,01,16.80
2016,09,29,17,02,16.80
2016,09,29,17,03,16.70
2016,09,29,17,04,16.70
2016,09,29,17,05,16.70
2016,09,29,17,06,16.70
2016,09,29,17,07,16.70
2016,09,29,17,08,16.70
2016,09,29,17,09,16.70
2016,09,29,17,10,16.70
2016,09,29,17,11,16.70
2016,09,29,17,12,16.70
2016,09,29,17,13,16.70
2016,09,29,17,14,16.70
2016,09,29,17,15,16.70
2016,09,29,17,16,16.80
2016,09,29,17,17,16.80
2016,09,29,17,18,16.80
2016,09,29,17,19,16.80
2016,09,29,17,20,16.80
2016,09,29,17,21,16.80
2016,09,29,17,22,16.80
2016,09,29,17,23,16.90
2016,09,29,17,24,17.00
2016,09,29,17,25,17.00
2016,09,29,17,26,17.10
2016,09,29,17,27,17.10
2016,09,29,17,28,17.20
2016,09,29,17,29,17.20
2016,09,29,17,30,17.20
2016,09,29,17,31,17.20
2016,09,29,17,32,17.20
2016,09,29,17,33,17.20
2016,09,29,17,34,17.20
2016,09,29,17,35,17.20
2016,09,29,17,36,17.20
2016,09,29,17,37,17.20
2016,09,29,17,38,17.10
2016,09,29,17,39,17.10
2016,09,29,17,40,17.00
2016,09,29,17,41,17.00
2016,09,29,17,42,16.90
2016,09,29,17,43,16.90
2016,09,29,17,44,16.90